Torna al catalogo

STARLINK-33755

AttivoComunicazioniVLEO
NORAD 63579·PAYLOAD·🇺🇸 United States

Lanciato Apr 14, 2025 da Cape Canaveral Space Force Station

Loading…

Prossimi Passaggi (prossime 24 ore)

TLE

AggiornatoSource: CelesTrak SupGP

Epoca: Sep 14, 2026, 22:36 UTC

1 63579C 25076L   26257.94215278 -.00018874  00000+0 -68370-3 0  2573
2 63579  43.0036 332.7609 0001440 265.0685 134.2065 15.27583717    17

Traccia STARLINK-33755 in tempo reale con AllMySat

Download on the App Store